Regional Weather Roundup
Issued by NWS

Home | Current Version | Previous Version | Text Only | Print | Product List | Glossary Off
Versions: 1 2 3 4 5 6 7 8 9 10 11 12 13 14 15 16 17 18 19 20 21 22 23 24 25 26 27 28 29 30 31 32 33 34 35 36 37 38 39 40 41 42 43 44 45 46 47 48 49 50

000
ASUS43 KMKX 201920
RWRWI

WISCONSIN REGIONAL WEATHER ROUNDUP
NATIONAL WEATHER SERVICE MILWAUKEE/SULLIVAN WI
100 PM CST SAT JAN 20 2018

NOTE: "FAIR" INDICATES FEW OR NO CLOUDS BELOW 12,000 FEET WITH NO
SIGNIFICANT WEATHER AND/OR OBSTRUCTIONS TO VISIBILITY.

WIZ001-002-006>008-014>016-023>028-202000-
NORTHWEST WISCONSIN

CITY           SKY/WX    TMP DP  RH WIND       PRES   REMARKS
SUPERIOR ARPT  FAIR      37  29  72 SW5       29.83F WCI  34
ASHLAND        PTSUNNY   36  30  79 S8        29.83F WCI  30
HAYWARD        FAIR      36  29  75 SW5       29.84F WCI  32
SIREN          PTSUNNY   38  30  71 SW7       29.85F WCI  33
CUMBERLAND     FAIR      34  30  86 CALM      29.86S
RICE LAKE      FAIR      37  31  78 CALM      29.88S
CHETEK         CLOUDY    36  30  80 CALM      29.87F
LADYSMITH      CLOUDY    33  33  98 CALM      29.88F
EAU CLAIRE     CLOUDY    38  31  76 S3        29.87F
MENOMONIE      CLOUDY    37  31  78 CALM      29.88F
NEW RICHMOND   CLOUDY    38  30  73 CALM      29.88R
OSCEOLA        CLOUDY    36  30  80 CALM      29.91R
$$

WIZ003>005-009-010-017-018-202000-
NORTH CENTRAL WISCONSIN

CITY           SKY/WX    TMP DP  RH WIND       PRES   REMARKS
MANITOWISH WTR FAIR      34  32  92 S6        29.83R WCI  29
ARBOR VITAE    CLOUDY    37  32  84 SW6       29.84R WCI  32
WOODRUFF       CLOUDY    37  32  84 SW6       29.84R WCI  32
RHINELANDER    CLOUDY    35  31  85 W8        29.85R WCI  29
EAGLE RIVER    FAIR      34  30  86 SW7       29.83R WCI  28
LAND O LAKES   CLOUDY    37  30  75 NW3       29.82F
PHILLIPS       CLOUDY    35  31  85 CALM      29.84F
TOMAHAWK       CLOUDY    35  29  79 CALM      29.86S
MEDFORD        PTSUNNY   36  29  77 CALM      29.86S
MERRILL        CLOUDY    38  31  75 CALM      29.87S
$$

WIZ029-030-035-036-043>047-202000-
CENTRAL WISCONSIN

CITY           SKY/WX    TMP DP  RH WIND       PRES   REMARKS
WAUSAU         FAIR      41  30  65 CALM      29.84F
MOSINEE        PTSUNNY   39  30  70 CALM      29.86F
MARSHFIELD     FAIR      39  31  72 CALM      29.85F
STEVENS POINT  FAIR      38  29  70 CALM      29.86F
WAUPACA        FAIR      44  31  60 CALM      29.88F
WAUTOMA        FAIR      40  31  70 CALM      29.88F
WISC RAPIDS    FAIR      37  28  70 SW5       29.89S WCI  33
CAMP DOUGLAS   PTSUNNY   43  32  65 CALM      29.89S
$$

WIZ011>013-019>022-031-037>040-048>050-202000-
NORTHEAST WISCONSIN

CITY           SKY/WX    TMP DP  RH WIND       PRES   REMARKS
ANTIGO         FAIR      36  30  79 CALM      29.85F
SHAWANO        PTSUNNY   43  30  61 CALM      29.87F
OCONTO         FAIR      42  30  63 CALM      29.88F
STURGEON BAY   PTSUNNY   39  29  67 W5        29.89S
GREEN BAY      FAIR      40  31  70 S3        29.88F
MANITOWOC      FAIR      40  31  70 NW5       29.90S
APPLETON       PTSUNNY   39  28  65 CALM      29.87F
CLINTONVILLE   FAIR      41  30  65 CALM      29.87F
OSHKOSH        FAIR      41  31  67 CALM      29.89S
$$

WIZ032>034-041-042-053>061-202000-
SOUTHWEST WISCONSIN

CITY           SKY/WX    TMP DP  RH WIND       PRES   REMARKS
LA CROSSE      FAIR      35  30  82 CALM      29.88F
SPARTA         FAIR      38  32  78 CALM      29.90R
VIROQUA        FAIR      41  34  76 CALM      29.86F
BOSCOBEL       FAIR      47  33  58 NE5       29.88F
PRAIRIE DU CHI FAIR      46  32  57 NW5       29.87S
PLATTEVILLE    FAIR      44  36  73 S6        29.87F
$$

WIZ056-057-062-063-064-067-068-202000-
SOUTH CENTRAL WISCONSIN

CITY           SKY/WX    TMP DP  RH WIND       PRES   REMARKS
REEDSBURG      FAIR      42  31  64 CALM      29.87F
BARABOO/DELLS  FAIR      43  31  61 CALM      29.87F
LONE ROCK      FAIR      46  33  60 CALM      29.88F
MINERAL POINT  FAIR      46  36  66 CALM      29.85F
MADISON        PTSUNNY   47  31  53 CALM      29.87F
MIDDLETON      FAIR      50  32  49 CALM      29.87S
WATERTOWN      FAIR      45  32  60 CALM      29.88S
MONROE         FAIR      43  32  65 S6        29.87F
JANESVILLE     MOSUNNY   45  32  61 S6        29.88F
$$

WIZ051-052-058>065-066-070>072-202000-
SOUTHEAST WISCONSIN

CITY           SKY/WX    TMP DP  RH WIND       PRES   REMARKS
MILWAUKEE      PTSUNNY   49  32  52 W3        29.88F
WAUKESHA       SUNNY     45  30  57 CALM      29.88F
MILWAUKEE/TIMM SUNNY     48  27  43 W3        29.88F
RACINE         FAIR      46  33  60 SW8       29.90F
BURLINGTON     FAIR      46  32  57 SW7       29.88F
KENOSHA        FAIR      46  31  55 SW7       29.89F
FOND DU LAC    FAIR      43  30  60 CALM      29.88F
SHEBOYGAN      FAIR      46  33  60 CALM      29.89S
WEST BEND      FAIR      46  30  53 CALM      29.88S
JUNEAU         FAIR      40  31  70 CALM      29.89F
$$

LSZ147-162-202000-
LAKE SUPERIOR

STATION/POSITION TIME  TEMP    WIND        PRES    WAVE
                       AIR SEA DIR/SP/G            HT/PER
                 (UTC) (F)     (DEG/KT/KT) (MB)    (FT/S)
DEVILS ISLAND    1900   34     230/  9/  9 1010.4F
SAXON HARBOR     1840   40     200/  5/  7 1009.8F
$$

LMZ867-665-643>646-202000-
LAKE MICHIGAN

STATION/POSITION TIME  TEMP    WIND        PRES    WAVE
                       AIR SEA DIR/SP/G            HT/PER
                 (UTC) (F)     (DEG/KT/KT) (MB)    (FT/S)
NORTHPORT PIER   1840   39     250/  2/  6 1011.9R
KEWAUNEE LAKESHO 1854   41     280/  4/  4 1011.7R
SHEBOYGAN LAKESH 1900   36     140/  2/  2 1012.7R
PORT WASHINGTON  1840   39      50/  4/  5 1013.2S
MILWAUKEE LAKESH 1900   43     120/  6/  7   N/A
KENOSHA   LAKESH 1900   46     240/  3/  8 1012.2
$$

TC  - TEMPERATURE IN CELSIUS
VSB - VISIBILITY IN STATUTE MILES
WCI - WIND CHILL INDEX
HX  - HEAT INDEX





USA.gov is the U.S. government's official web portal to all federal, state and local government web resources and services.